DW7955 Weather Reports


time (UTC)temp
C
wind
direction
speed
KPH
gust
KPH
rain 1hr
cm
rain 24hr
cm
rain mn
cm
humidity
%
barometer
mb
20260831053032 21 310 6.4 14.5 0.00 0.00 0.00 48 1009.7
20260831051536 21 277 9.7 16.1 0.00 0.00 0.00 47 1009.7
20260831050030 21 290 0.0 6.4 0.00 0.00 0.00 53 1009.7
20260831044530 20 236 0.0 0.0 0.00 0.00 0.00 54 1009.7
20260831043028 21 236 0.0 4.8 0.00 0.00 0.00 54 1009.6
20260831041527 21 228 0.0 0.0 0.00 0.00 0.00 52 1009.4
20260831040030 21 26 0.0 0.0 0.00 0.00 0.00 50 1009.4
20260831034528 22 26 0.0 4.8 0.00 0.00 0.00 49 1009.1
20260831033033 22 8 0.0 1.6 0.00 0.00 0.00 47 1008.9
20260831031520 23 130 4.8 8.0 0.00 0.00 0.00 46 1008.7
20260831030017 23 1 0.0 4.8 0.00 0.00 0.00 45 1008.3
20260831024514 23 356 4.8 9.7 0.00 0.00 0.00 45 1007.8
20260831023012 23 258 1.6 11.3 0.00 0.00 0.00 43 1007.5
20260831021514 24 40 12.9 19.3 0.00 0.00 0.00 42 1006.6
20260831020008 24 27 11.3 19.3 0.00 0.00 0.00 42 1006.1
20260831014511 24 20 12.9 20.9 0.00 0.00 0.00 42 1005.9
20260831013008 24 22 9.7 20.9 0.00 0.00 0.00 42 1005.8
20260831011515 25 14 11.3 24.1 0.00 0.00 0.00 42 1005.7
20260831010006 25 34 19.3 30.6 0.00 0.00 0.00 41 1005.5
20260831004506 25 35 20.9 32.2 0.00 0.00 0.00 41 1005.5
20260831003008 26 34 19.3 40.2 0.00 0.00 0.00 36 1005.6
20260831001504 27 303 4.8 11.3 0.00 0.00 0.00 34 1004.9
20260831000004 28 277 8.0 14.5 0.00 0.00 0.00 33 1004.9
20260830234512 29 298 6.4 12.9 0.00 0.00 0.00 30 1004.7
20260830233005 29 314 6.4 12.9 0.00 0.00 0.00 29 1004.3
20260830231508 29 12 4.8 11.3 0.00 0.00 0.00 30 1004.4
20260830230002 29 312 11.3 16.1 0.00 0.00 0.00 29 1004.4
20260830224502 29 335 6.4 16.1 0.00 0.00 0.00 29 1004.4
20260830223005 30 323 8.0 16.1 0.00 0.00 0.00 28 1004.1
20260830221501 30 288 8.0 16.1 0.00 0.00 0.00 28 1004.1
20260830220103 30 328 3.2 9.7 0.00 0.00 0.00 28 1004.2
20260830214603 30 29 1.6 3.2 0.00 0.00 0.00 28 1004.1
20260830213058 30 6 1.6 6.4 0.00 0.00 0.00 28 1004.0
20260830211558 29 142 3.2 14.5 0.00 0.00 0.00 29 1003.9
20260830210058 30 157 6.4 14.5 0.00 0.00 0.00 30 1003.9
20260830204600 30 64 9.7 14.5 0.00 0.00 0.00 30 1003.7
20260830203056 30 116 6.4 17.7 0.00 0.00 0.00 30 1003.8
20260830201553 30 168 4.8 9.7 0.00 0.00 0.00 29 1004.2
20260830200051 29 253 4.8 9.7 0.00 0.00 0.00 30 1004.4
20260830194602 30 208 3.2 11.3 0.00 0.00 0.00 30 1004.5
20260830193049 29 209 3.2 11.3 0.00 0.00 0.00 30 1004.6
20260830191545 29 215 3.2 14.5 0.00 0.00 0.00 31 1004.8
20260830190042 28 193 4.8 12.9 0.00 0.00 0.00 30 1005.2
20260830184541 28 203 8.0 16.1 0.00 0.00 0.00 32 1005.4
20260830183040 28 188 8.0 17.7 0.00 0.00 0.00 31 1005.6
20260830181538 28 270 4.8 11.3 0.00 0.00 0.00 33 1005.8
20260830180036 27 239 4.8 16.1 0.00 0.00 0.00 34 1005.8
20260830174549 26 196 4.8 12.9 0.00 0.00 0.00 37 1005.8
20260830173034 25 235 1.6 9.7 0.00 0.00 0.00 39 1006.1
20260830171527 25 211 8.0 14.5 0.00 0.00 0.00 42 1006.4
20260830170027 25 236 9.7 16.1 0.00 0.00 0.00 42 1006.6
20260830164527 25 215 3.2 11.3 0.00 0.00 0.00 44 1006.5
20260830163028 23 244 1.6 12.9 0.00 0.00 0.00 48 1006.4
20260830161518 22 217 4.8 9.7 0.00 0.00 0.00 49 1006.3
20260830160016 22 226 3.2 8.0 0.00 0.00 0.00 51 1006.3
20260830154516 21 240 1.6 6.4 0.00 0.00 0.00 53 1006.4
20260830153029 20 278 3.2 12.9 0.00 0.00 0.00 54 1006.2
20260830151529 20 295 3.2 8.0 0.00 0.00 0.00 55 1006.1
20260830150013 20 230 4.8 9.7 0.00 0.00 0.00 56 1006.2
20260830144512 19 281 0.0 4.8 0.00 0.00 0.00 58 1006.1
20260830143012 19 294 1.6 6.4 0.00 0.00 0.00 58 1006.1
20260830141511 18 240 0.0 3.2 0.00 0.00 0.00 59 1006.4
20260830140012 18 315 0.0 4.8 0.00 0.00 0.00 59 1006.6
20260830134515 18 315 0.0 8.0 0.00 0.00 0.00 60 1006.6
20260830133007 18 339 0.0 3.2 0.00 0.00 0.00 61 1006.5
20260830131504 17 339 0.0 8.0 0.00 0.00 0.00 61 1006.4
20260830130004 17 339 3.2 4.8 0.00 0.00 0.00 62 1006.3
20260830124503 17 339 0.0 1.6 0.00 0.00 0.00 64 1006.2
20260830123002 17 339 0.0 1.6 0.00 0.00 0.00 64 1006.1
20260830121600 17 339 0.0 0.0 0.00 0.00 0.00 62 1006.0
20260830120107 17 339 0.0 3.2 0.00 0.00 0.00 62 1006.0
20260830114558 17 339 0.0 0.0 0.00 0.00 0.00 62 1005.9
20260830113057 17 339 0.0 0.0 0.00 0.00 0.00 61 1005.7
20260830111555 17 339 0.0 0.0 0.00 0.00 0.00 62 1005.6
20260830110055 18 339 0.0 0.0 0.00 0.00 0.00 60 1005.6
20260830104600 18 339 0.0 0.0 0.00 0.00 0.00 59 1005.5
20260830103049 18 339 0.0 0.0 0.00 0.00 0.00 58 1005.5
20260830101557 18 339 0.0 4.8 0.00 0.00 0.00 57 1005.3
20260830100046 18 345 4.8 8.0 0.00 0.00 0.00 57 1005.2
20260830094554 18 13 0.0 3.2 0.00 0.00 0.00 57 1005.0
20260830093043 19 15 0.0 4.8 0.00 0.00 0.00 56 1005.0
20260830091540 19 15 3.2 6.4 0.00 0.00 0.00 57 1004.9
20260830090038 20 13 3.2 4.8 0.00 0.00 0.00 56 1005.2
20260830084540 20 129 0.0 8.0 0.00 0.00 0.00 55 1005.4
20260830083038 20 205 0.0 0.0 0.00 0.00 0.00 53 1005.7
20260830081534 20 67 0.0 6.4 0.00 0.00 0.00 53 1005.5
20260830080032 20 62 4.8 11.3 0.00 0.00 0.00 52 1005.7
20260830074536 21 57 4.8 12.9 0.00 0.00 0.00 51 1006.0
20260830073030 21 40 14.5 19.3 0.00 0.00 0.00 51 1005.7
20260830071550 21 37 12.9 20.9 0.00 0.00 0.00 51 1005.7
20260830070026 21 22 11.3 20.9 0.00 0.00 0.00 51 1005.8
20260830064523 21 53 12.9 20.9 0.00 0.00 0.00 50 1005.8
20260830063019 22 53 11.3 24.1 0.00 0.00 0.00 47 1005.7
20260830061514 22 51 14.5 27.4 0.00 0.00 0.00 43 1005.9
20260830060011 23 296 0.0 0.0 0.00 0.00 0.00 42 1005.4
20260830054511 23 296 0.0 6.4 0.00 0.00 0.00 42 1005.3